Regional Weather Roundup
Issued by NWS

Home | Current Version | Previous Version | Graphics & Text | Print | Product List | Glossary Off
Versions: 1 2 3 4 5 6 7 8 9 10 11 12 13 14 15 16 17 18 19 20 21 22 23 24 25 26 27 28 29 30 31 32 33 34 35 36 37 38 39 40 41 42 43 44 45 46 47 48 49 50

000
ASUS43 KMPX 060410
RWRMN
WEATHER ROUNDUP FOR MINNESOTA
NATIONAL WEATHER SERVICE TWIN CITIES/CHANHASSEN MN
1000 PM CST MON DEC 05 2016


NOTE: "FAIR" INDICATES FEW OR NO CLOUDS BELOW 12,000 FEET WITH NO
SIGNIFICANT WEATHER AND/OR OBSTRUCTIONS TO VISIBILITY. N/A MEANS
CURRENT SKY AND/OR WEATHER CONDITIONS ARE NOT AVAILABLE.

MNZ060>063-068>070-060500-
   Twin Cities Metro

CITY           SKY/WX    TMP DP  RH WIND       PRES   REMARKS
TWIN CITIES    CLOUDY    40  33  76 S14       29.66S
ST PAUL        CLOUDY    38  34  85 S16G24    29.67S
CRYSTAL        CLOUDY    39  32  76 S14G23    29.63S
BLAINE         MOCLDY    39  36  87 S15G22    29.63S
LAKEVILLE      CLOUDY    37  36  93 S15G23    29.66S
EDEN PRAIRIE   CLOUDY    41  34  76 S13G26    29.63F
SOUTH ST PAUL  CLOUDY    38  33  81 S15G23    29.67S
LAKE ELMO      CLOUDY    36  34  93 S16       29.67F
$$
MNZ001>005-007-008-013>017-022>024-027-028-060500-
   Northwest Minnesota

CITY           SKY/WX    TMP DP  RH WIND       PRES   REMARKS
BEMIDJI        DRIZZLE   32  32  99 E14       29.44F WCI  22
HALLOCK        CLOUDY    32  28  86 NE15G21   29.54F WCI  22
ROSEAU         LGT SNOW  30  27  86 NE20G25   29.54F WCI  18
WARROAD        CLOUDY    30  27  86 E16G24    29.57F WCI  19
THIEF RVR FALL LGT SNOW  29  27  92 NE17      29.45F VSB 3/4 WCI  17
CROOKSTON      LGT SNOW  30  28  93 E14       29.44F WCI  20
FOSSTON        MIX PCPN  30  30 100 E9        29.41F WCI  22
DETROIT LAKES  CLOUDY    34  32  93 S8        29.41F WCI  27
MOORHEAD       CLOUDY    34  32  93 S12       29.41F WCI  25
PARK RAPIDS    CLOUDY    35  31  85 SE13      29.41F WCI  26
$$
MNZ006-009>011-018-025>026-060500-
   North Central Minnesota

CITY           SKY/WX    TMP DP  RH WIND       PRES   REMARKS
BAUDETTE       LGT SNOW  29  27  92 E14       29.55F VSB 3/4 WCI  18
FLAG ISLAND    CLOUDY    30  27  86 E10G16    29.60F WCI  21
INTL FALLS     LGT SNOW  30  28  92 E13       29.60F FOG     WCI  20
WASKISH        LGT SNOW  30  28  93 E13G18    29.51F WCI  20
BIG FORK       LGT SNOW  34  32  93 SE8       29.53F WCI  27
LONGVILLE      CLOUDY    34  32  93 CALM      29.48F
GRAND RAPIDS   LGT RAIN  33  31  92 SE10G16   29.55F WCI  25
CRANE LAKE     SNOW      28  28 100 CALM      29.65S VSB 1/2
COOK           LGT SNOW  32  30  93 E6        29.60F WCI  26
$$
MNZ012-019>021-037-060500-
   Northeast Minnesota

CITY           SKY/WX    TMP DP  RH WIND       PRES   REMARKS
DULUTH         LGT SNOW  34  33  96 SE17G24   29.63F FOG     WCI  23
ELY            FLURRIES  30  28  93 SE12G20   29.64S WCI  21
HIBBING        MIX PCPN  32  31  96 SE16      29.58F WCI  21
EVELETH        MIX PCPN  34  32  94 SE9       29.61F WCI  26
DULUTH HARBOR  CLOUDY    37  34  87 SE5       29.68S
TWO HARBORS    RAIN      37  34  87 E7        29.66F
SILVER BAY     CLOUDY    37  36  93 E7        29.68F
GRAND MARAIS     N/A     35  33  92 NE14G20   29.75F WCI  26
G MARAIS ARPRT CLOUDY    28  27  93 E13G18    29.70F WCI  18
$$
MNZ029>031-032-039>041-046>048-054>057-064-060500-
   West Central Minnesota

CITY           SKY/WX    TMP DP  RH WIND       PRES   REMARKS
FERGUS FALLS   CLOUDY    30  30 100 W23G29    29.50R WCI  17
WHEATON        CLOUDY    28  25  86 W20G40    29.57R WCI  15
MORRIS         CLOUDY    30  27  86 W23G36    29.55R WCI  17
ALEXANDRIA     CLOUDY    33  30  88 SW20G28   29.51R WCI  21
ELBOW LAKE     CLOUDY    31  29  91 SW23      29.50R WCI  18
WADENA         CLOUDY    34  32  93 S12       29.43F WCI  25
GLENWOOD       CLOUDY    34  30  86 SW21G26   29.53R WCI  22
APPLETON       CLOUDY    30  25  80 W24       29.62R WCI  16
BENSON         CLOUDY    34  27  75 W29G35    29.59R WCI  20
ORTONVILLE     CLOUDY    28  21  74 W21G31    29.61R WCI  15
MADISON        CLOUDY    32  27  80 W29G39    29.65R WCI  18
WILLMAR        CLOUDY    34  30  86 SW16G22   29.62R WCI  23
$$
MNZ033>034-036-042>043-049>051-058-059-060500-
   Central Minnesota

CITY           SKY/WX    TMP DP  RH WIND       PRES   REMARKS
ST CLOUD       CLOUDY    36  31  82 SW16G25   29.59R
PAYNESVILLE    MOCLDY    34  31  91 SW16G24   29.59R WCI  23
AITKIN         CLOUDY    37  30  75 SE13G21   29.51F
PINE RIVER     CLOUDY    36  34  93 SE13      29.50F
BRAINERD       CLOUDY    36  33  89 S13       29.49F
STAPLES        CLOUDY    34  34 100 S18G25    29.47R WCI  23
LONG PRAIRIE   CLOUDY    32  30  93 S16G25    29.52R WCI  21
LITTLE FALLS   CLOUDY    36  32  87 SW18G28   29.53S
LITCHFIELD     CLOUDY    36  30  80 SW10G17   29.62R
BUFFALO        CLOUDY    40  35  81 S16G22    29.62R
MAPLE LAKE     CLOUDY    39  34  81 SW14G23   29.62R
$$
MNZ037-044-045-052-053-060500-
   East Central Minnesota

CITY           SKY/WX    TMP DP  RH WIND       PRES   REMARKS
PRINCETON      CLOUDY    39  36  87 S12G21    29.59R
MORA           CLOUDY    36  32  87 S9        29.61F
CAMBRIDGE      CLOUDY    39  30  70 S15       29.59S
RUSH CITY      CLOUDY    37  32  81 S14G24    29.62S
MOOSE LAKE     CLOUDY    34  32  93 S3        29.59F
HINCKLEY       CLOUDY    36  32  87 SE9G16    29.61S
CLOQUET        CLOUDY    34  30  86 E7        29.62F WCI  28
MCGREGOR       CLOUDY    34  32  93 SE18G25   29.55F WCI  23
$$
MNZ071>073-080-081-089-090-097-098-060500-
   Southwest Minnesota

CITY           SKY/WX    TMP DP  RH WIND       PRES   REMARKS
MONTEVIDEO     CLOUDY    34  27  75 NW17G25   29.64R WCI  23
GRANITE FALLS  CLOUDY    33  29  85 SW23      29.67R WCI  21
CANBY          CLOUDY    29  23  77 NW24G38   29.69R WCI  15
MARSHALL       CLOUDY    30  24  78 W32G40    29.67R WCI  14
REDWOOD FALLS  CLOUDY    34  26  72 W17G25    29.66R WCI  23
OLIVIA         CLOUDY    34  30  86 W20G26    29.63R WCI  22
PIPESTONE      CLOUDY    28  25  86 NW26G33   29.70R WCI  13
WINDOM         CLOUDY    34  28  80 W15       29.69R WCI  24
WORTHINGTON    CLOUDY    31  26  82 W25G37    29.70R WCI  17
JACKSON        CLOUDY    32  28  86 W21G28    29.70S WCI  20
TRACY          CLOUDY    32  27  81 W17G25    29.68R WCI  21
SLAYTON        CLOUDY    29  25  83 W29G36    29.68R WCI  14
$$
MNZ065>067-074>077-082>085-091>093-060500-
   South Central Minnesota

CITY           SKY/WX    TMP DP  RH WIND       PRES   REMARKS
MANKATO        CLOUDY    39  34  81 W17       29.68R
NEW ULM        CLOUDY    36  30  80 W12       29.68R
ST JAMES       CLOUDY    36  30  80 W17       29.70R
FAIRMONT       CLOUDY    37  31  78 W18       29.71R
GLENCOE        CLOUDY    38  34  84 SW9G18    29.64R
FARIBAULT      CLOUDY    37  34  87 S14G22    29.68R
OWATONNA       CLOUDY    36  32  87 S18       29.68R
WASECA         CLOUDY    37  34  87 S14G23    29.69R
ALBERT LEA     CLOUDY    39  37  93 S13G22    29.70R
$$
MNZ078>079-086>088-094>096-060500-
   Southeast Minnesota

CITY           SKY/WX    TMP DP  RH WIND       PRES   REMARKS
ROCHESTER      FRZ RAIN  33  31  92 S18       29.72F WCI  22
RED WING       LGT RAIN  37  32  81 S14       29.70S
STANTON        CLOUDY    38  33  81 S15G22    29.66S
DODGE CENTER   MIX PCPN  34  32  93 S22       29.69S WCI  22
WINONA         CLOUDY    36  30  80 S6        29.78S
AUSTIN         LGT RAIN  34  30  86 S15G21    29.72S WCI  24
PRESTON        MOCLDY    32  29  89 S13       29.76S WCI  22
$$
ABBREVIATIONS USED IN REMARKS
   TC - TEMPERATURES IN CELSIUS
  WCI - WIND CHILL INDEX
   HX - HEAT INDEX
  VSB - VISIBILITY
$$



USA.gov is the U.S. government's official web portal to all federal, state and local government web resources and services.